• In Hungary
  • List of Countries
  • For 7 days
  • Water Temperature
  • Satellite Maps
  • Weather Map
  • News
  • Weather Widgets
  • user-avatar
    Login

    Hourly Weather Semorzha

    Today, 15 December, Friday

    Time Temperature Precipitation Wind Pressure Humidity
    00:00 -4°C° 0.2 mm 5 mps 733 mmHg 94%
    01:00 -4°C° 0.2 mm 5 mps 733 mmHg 94%
    02:00 -2°C° 0 mm 5 mps 732 mmHg 93%
    03:00 -2°C° 0 mm 5 mps 733 mmHg 93%
    04:00 -2°C° 0 mm 5 mps 733 mmHg 93%
    05:00 -3°C° 0 mm 6 mps 733 mmHg 92%
    06:00 -2°C° 0 mm 5 mps 733 mmHg 92%
    07:00 -2°C° 0 mm 5 mps 734 mmHg 92%
    08:00 -4°C° 0 mm 5 mps 734 mmHg 93%
    09:00 -4°C° 0 mm 5 mps 735 mmHg 93%
    10:00 -4°C° 0 mm 5 mps 735 mmHg 93%
    11:00 -4°C° 0 mm 5 mps 736 mmHg 93%
    12:00 -4°C° 0 mm 5 mps 736 mmHg 93%
    13:00 -3°C° 0 mm 4 mps 736 mmHg 93%
    14:00 -3°C° 0 mm 4 mps 736 mmHg 93%
    15:00 -3°C° 0 mm 4 mps 736 mmHg 93%
    16:00 -4°C° 0 mm 4 mps 736 mmHg 94%
    17:00 -4°C° 0 mm 4 mps 737 mmHg 95%
    18:00 -4°C° 0 mm 4 mps 736 mmHg 95%
    19:00 -4°C° 0 mm 5 mps 736 mmHg 95%
    20:00 -4°C° 0 mm 5 mps 736 mmHg 96%
    21:00 -4°C° 0.2 mm 6 mps 736 mmHg 95%
    22:00 -3°C° 0.2 mm 6 mps 735 mmHg 94%
    23:00 -3°C° 0.2 mm 7 mps 735 mmHg 94%

    Tomorrow, 16 December, Saturday

    Time Temperature Precipitation Wind Pressure Humidity
    00:00 -3°C° 1.2 mm 7 mps 734 mmHg 94%
    01:00 -2°C° 1.2 mm 7 mps 734 mmHg 95%
    02:00 -2°C° 1.2 mm 7 mps 733 mmHg 95%
    03:00 -2°C° 0.2 mm 6 mps 733 mmHg 96%
    04:00 -2°C° 0.2 mm 6 mps 733 mmHg 97%
    05:00 -1°C° 0.2 mm 5 mps 733 mmHg 99%
    06:00 -1°C° 0.1 mm 5 mps 733 mmHg 99%
    07:00 -1°C° 0.1 mm 4 mps 733 mmHg 98%
    08:00 -1°C° 0.1 mm 4 mps 733 mmHg 98%
    09:00 0°C° 0.5 mm 3 mps 733 mmHg 99%
    10:00 0°C° 0.5 mm 3 mps 733 mmHg 99%
    11:00 0°C° 0.5 mm 3 mps 733 mmHg 99%
    12:00 0°C° 1.4 mm 3 mps 732 mmHg 99%
    13:00 -1°C° 1.4 mm 4 mps 731 mmHg 99%
    14:00 -1°C° 1.4 mm 4 mps 730 mmHg 99%
    15:00 0°C° 1.8 mm 4 mps 729 mmHg 99%
    16:00 0°C° 1.8 mm 5 mps 728 mmHg 99%
    17:00 +1°C° 1.8 mm 5 mps 728 mmHg 99%
    18:00 +1°C° 0.5 mm 5 mps 727 mmHg 99%
    19:00 +1°C° 0.5 mm 6 mps 727 mmHg 99%
    20:00 +1°C° 0.5 mm 6 mps 726 mmHg 99%
    21:00 +1°C° 0.2 mm 6 mps 726 mmHg 98%
    22:00 +1°C° 0.2 mm 6 mps 727 mmHg 98%
    23:00 0°C° 0.2 mm 7 mps 727 mmHg 97%

    Day after tomorrow, 17 December, Sunday

    Time Temperature Precipitation Wind Pressure Humidity
    00:00 -1°C° 0.1 mm 7 mps 728 mmHg 95%
    01:00 -1°C° 0.1 mm 8 mps 729 mmHg 92%
    02:00 -2°C° 0.1 mm 8 mps 730 mmHg 90%
    03:00 -2°C° 0 mm 7 mps 732 mmHg 90%
    04:00 -3°C° 0 mm 7 mps 733 mmHg 90%
    05:00 -3°C° 0 mm 6 mps 735 mmHg 89%
    06:00 -2°C° 0 mm 5 mps 736 mmHg 90%
    07:00 -3°C° 0 mm 4 mps 737 mmHg 91%
    08:00 -3°C° 0 mm 4 mps 738 mmHg 91%
    09:00 -3°C° 0 mm 4 mps 739 mmHg 91%
    10:00 -3°C° 0 mm 4 mps 739 mmHg 91%
    11:00 -2°C° 0 mm 3 mps 740 mmHg 92%
    12:00 -2°C° 0 mm 3 mps 740 mmHg 91%
    13:00 -2°C° 0 mm 2 mps 741 mmHg 91%
    14:00 -1°C° 0 mm 2 mps 741 mmHg 91%
    15:00 0°C° 0 mm 1 mps 741 mmHg 92%
    16:00 0°C° 0 mm 1 mps 741 mmHg 92%
    17:00 0°C° 0 mm 1 mps 742 mmHg 93%
    18:00 0°C° 0 mm 1 mps 742 mmHg 93%
    19:00 0°C° 0 mm 1 mps 742 mmHg 94%
    20:00 0°C° 0 mm 1 mps 742 mmHg 94%
    21:00 -1°C° 0 mm 1 mps 742 mmHg 94%
    22:00 -1°C° 0 mm 1 mps 742 mmHg 94%
    23:00 -3°C° 0 mm 2 mps 742 mmHg 94%

    18 December, Monday

    Time Temperature Precipitation Wind Pressure Humidity
    00:00 -3°C° 0 mm 2 mps 742 mmHg 94%
    01:00 -3°C° 0 mm 2 mps 742 mmHg 93%
    02:00 -4°C° 0 mm 2 mps 742 mmHg 93%
    03:00 -4°C° 0 mm 2 mps 742 mmHg 93%
    04:00 -4°C° 0 mm 2 mps 742 mmHg 93%
    05:00 -4°C° 0 mm 2 mps 742 mmHg 93%
    06:00 -5°C° 0 mm 2 mps 742 mmHg 93%
    07:00 -5°C° 0 mm 2 mps 742 mmHg 93%
    08:00 -5°C° 0 mm 2 mps 742 mmHg 93%
    09:00 -6°C° 0 mm 3 mps 742 mmHg 93%
    10:00 -6°C° 0 mm 3 mps 742 mmHg 92%
    11:00 -5°C° 0 mm 3 mps 742 mmHg 92%
    12:00 -5°C° 0 mm 3 mps 741 mmHg 92%
    13:00 -5°C° 0 mm 4 mps 741 mmHg 92%
    14:00 -5°C° 0 mm 4 mps 741 mmHg 92%
    15:00 -5°C° 0 mm 4 mps 741 mmHg 91%
    16:00 -6°C° 0 mm 5 mps 741 mmHg 91%
    17:00 -6°C° 0 mm 5 mps 741 mmHg 91%
    18:00 -6°C° 0 mm 5 mps 741 mmHg 90%
    19:00 -6°C° 0 mm 5 mps 741 mmHg 89%
    20:00 -6°C° 0 mm 5 mps 741 mmHg 89%
    21:00 -6°C° 0 mm 5 mps 741 mmHg 89%
    22:00 -6°C° 0 mm 5 mps 741 mmHg 89%
    23:00 -6°C° 0 mm 5 mps 742 mmHg 90%

    19 December, Tuesday

    Time Temperature Precipitation Wind Pressure Humidity
    00:00 -6°C° 0 mm 5 mps 742 mmHg 90%
    01:00 -6°C° 0 mm 5 mps 742 mmHg 89%
    02:00 -6°C° 0 mm 5 mps 742 mmHg 89%
    03:00 -6°C° 0 mm 5 mps 742 mmHg 89%
    04:00 -6°C° 0 mm 5 mps 742 mmHg 89%
    05:00 -6°C° 0 mm 5 mps 742 mmHg 88%
    06:00 -6°C° 0.1 mm 5 mps 743 mmHg 88%
    07:00 -6°C° 0.1 mm 5 mps 743 mmHg 88%
    08:00 -6°C° 0.1 mm 5 mps 743 mmHg 88%
    09:00 -6°C° 0 mm 5 mps 744 mmHg 87%
    10:00 -6°C° 0 mm 5 mps 744 mmHg 87%
    11:00 -6°C° 0 mm 5 mps 745 mmHg 86%
    12:00 -6°C° 0.1 mm 5 mps 745 mmHg 86%
    13:00 -6°C° 0.1 mm 5 mps 745 mmHg 85%
    14:00 -5°C° 0.1 mm 4 mps 745 mmHg 85%
    15:00 -5°C° 0 mm 4 mps 746 mmHg 86%
    16:00 -5°C° 0 mm 4 mps 746 mmHg 86%
    17:00 -5°C° 0 mm 4 mps 747 mmHg 87%
    18:00 -5°C° 0 mm 4 mps 747 mmHg 87%
    19:00 -7°C° 0 mm 4 mps 747 mmHg 86%
    20:00 -7°C° 0 mm 4 mps 748 mmHg 86%
    21:00 -7°C° 0 mm 4 mps 748 mmHg 86%
    22:00 -7°C° 0 mm 4 mps 748 mmHg 86%
    23:00 -6°C° 0 mm 3 mps 748 mmHg 85%

    20 December, Wednesday

    Time Temperature Precipitation Wind Pressure Humidity
    00:00 -7°C° 0 mm 4 mps 749 mmHg 85%
    01:00 -7°C° 0 mm 4 mps 749 mmHg 85%
    02:00 -7°C° 0 mm 4 mps 749 mmHg 84%
    03:00 -7°C° 0 mm 4 mps 749 mmHg 85%
    04:00 -7°C° 0 mm 4 mps 749 mmHg 85%
    05:00 -7°C° 0 mm 4 mps 749 mmHg 86%
    06:00 -7°C° 0 mm 4 mps 750 mmHg 86%
    07:00 -7°C° 0 mm 4 mps 750 mmHg 87%
    08:00 -7°C° 0 mm 4 mps 750 mmHg 87%
    09:00 -7°C° 0 mm 4 mps 750 mmHg 87%
    10:00 -7°C° 0 mm 4 mps 750 mmHg 86%
    11:00 -7°C° 0 mm 4 mps 751 mmHg 86%
    12:00 -7°C° 0 mm 4 mps 750 mmHg 86%
    13:00 -7°C° 0 mm 4 mps 750 mmHg 86%
    14:00 -7°C° 0 mm 4 mps 750 mmHg 87%
    15:00 -8°C° 0 mm 4 mps 750 mmHg 87%
    16:00 -8°C° 0 mm 4 mps 750 mmHg 88%
    17:00 -8°C° 0 mm 4 mps 750 mmHg 89%
    18:00 -7°C° 0 mm 3 mps 750 mmHg 89%
    19:00 -8°C° 0 mm 3 mps 750 mmHg 89%
    20:00 -8°C° 0 mm 3 mps 750 mmHg 89%
    21:00 -8°C° 0 mm 3 mps 750 mmHg 90%
    22:00 -8°C° 0 mm 3 mps 749 mmHg 91%
    23:00 -9°C° 0 mm 3 mps 749 mmHg 92%
    Show more